| time (UTC) | temp C | wind direction | speed KPH | gust KPH | rain 1hr cm | rain 24hr cm | rain mn cm | humidity % | barometer mb |
| 20260505101945 | 12 | 147 | 8.0 | 12.9 | 0.00 | 0.00 | 0.00 | 89 | 1008.0 |
| 20260505101445 | 12 | 148 | 8.0 | 9.7 | 0.00 | 0.00 | 0.00 | 90 | 1008.0 |
| 20260505100945 | 12 | 225 | 6.4 | 14.5 | 0.00 | 0.00 | 0.00 | 90 | 1009.0 |
| 20260505100445 | 12 | 189 | 6.4 | 12.9 | 0.00 | 0.00 | 0.00 | 90 | 1009.0 |
| 20260505095945 | 12 | 139 | 8.0 | 12.9 | 0.00 | 0.00 | 0.00 | 90 | 1009.0 |
| 20260505095446 | 12 | 171 | 6.4 | 16.1 | 0.00 | 0.00 | 0.00 | 90 | 1009.0 |
| 20260505094944 | 12 | 226 | 6.4 | 9.7 | 0.00 | 0.00 | 0.00 | 90 | 1009.0 |
| 20260505094445 | 12 | 97 | 9.7 | 14.5 | 0.00 | 0.00 | 0.00 | 90 | 1009.0 |
| 20260505093944 | 12 | 165 | 6.4 | 14.5 | 0.00 | 0.00 | 0.00 | 90 | 1009.0 |
| 20260505093445 | 12 | 174 | 6.4 | 14.5 | 0.00 | 0.00 | 0.00 | 90 | 1009.0 |
| 20260505092945 | 12 | 125 | 9.7 | 20.9 | 0.00 | 0.00 | 0.00 | 90 | 1009.0 |
| 20260505092445 | 12 | 144 | 9.7 | 14.5 | 0.00 | 0.00 | 0.00 | 91 | 1010.0 |
| 20260505091945 | 12 | 191 | 4.8 | 17.7 | 0.00 | 0.00 | 0.00 | 91 | 1010.0 |
| 20260505091445 | 12 | 102 | 4.8 | 17.7 | 0.00 | 0.00 | 0.00 | 91 | 1010.0 |
| 20260505090945 | 12 | 177 | 4.8 | 14.5 | 0.00 | 0.00 | 0.00 | 91 | 1010.0 |
| 20260505090445 | 12 | 127 | 4.8 | 14.5 | 0.00 | 0.00 | 0.00 | 91 | 1010.0 |
| 20260505085944 | 12 | 179 | 3.2 | 8.0 | 0.00 | 0.00 | 0.00 | 92 | 1010.0 |
| 20260505085445 | 12 | 120 | 6.4 | 12.9 | 0.00 | 0.00 | 0.00 | 92 | 1010.0 |
| 20260505084945 | 11 | 143 | 1.6 | 17.7 | 0.00 | 0.00 | 0.00 | 92 | 1011.0 |
| 20260505084444 | 11 | 231 | 9.7 | 17.7 | 0.00 | 0.00 | 0.00 | 92 | 1011.0 |
| 20260505083945 | 11 | 33 | 6.4 | 16.1 | 0.00 | 0.00 | 0.00 | 92 | 1011.0 |
| 20260505083444 | 11 | 141 | 9.7 | 16.1 | 0.00 | 0.00 | 0.00 | 92 | 1011.0 |
| 20260505082945 | 11 | 165 | 6.4 | 12.9 | 0.00 | 0.00 | 0.00 | 92 | 1011.0 |
| 20260505082445 | 11 | 206 | 6.4 | 12.9 | 0.00 | 0.00 | 0.00 | 92 | 1012.0 |
| 20260505081944 | 11 | 156 | 6.4 | 12.9 | 0.00 | 0.00 | 0.00 | 92 | 1012.0 |
| 20260505081444 | 11 | 203 | 8.0 | 9.7 | 0.00 | 0.00 | 0.00 | 92 | 1012.0 |
| 20260505080944 | 11 | 232 | 6.4 | 9.7 | 0.00 | 0.00 | 0.00 | 92 | 1012.0 |
| 20260505080444 | 11 | 213 | 6.4 | 12.9 | 0.00 | 0.00 | 0.00 | 92 | 1012.0 |
| 20260505075947 | 11 | 160 | 8.0 | 11.3 | 0.00 | 0.00 | 0.00 | 92 | 1012.0 |
| 20260505075444 | 11 | 210 | 9.7 | 12.9 | 0.00 | 0.00 | 0.00 | 92 | 1012.0 |
| 20260505074945 | 11 | 197 | 8.0 | 12.9 | 0.00 | 0.00 | 0.00 | 92 | 1013.0 |
| 20260505074444 | 11 | 186 | 8.0 | 12.9 | 0.00 | 0.00 | 0.00 | 92 | 1013.0 |
| 20260505073949 | 11 | 146 | 8.0 | 12.9 | 0.00 | 0.00 | 0.00 | 91 | 1013.0 |
| 20260505073444 | 11 | 150 | 6.4 | 16.1 | 0.00 | 0.00 | 0.00 | 91 | 1013.0 |
| 20260505072945 | 11 | 171 | 8.0 | 12.9 | 0.00 | 0.00 | 0.00 | 91 | 1013.0 |
| 20260505072444 | 11 | 220 | 6.4 | 16.1 | 0.00 | 0.00 | 0.00 | 91 | 1013.0 |
| 20260505071945 | 12 | 169 | 9.7 | 16.1 | 0.00 | 0.00 | 0.00 | 91 | 1013.0 |
| 20260505071444 | 12 | 210 | 9.7 | 14.5 | 0.00 | 0.00 | 0.00 | 90 | 1014.0 |
| 20260505070945 | 12 | 153 | 6.4 | 14.5 | 0.00 | 0.00 | 0.00 | 90 | 1014.0 |
| 20260505070444 | 12 | 199 | 9.7 | 12.9 | 0.00 | 0.00 | 0.00 | 90 | 1014.0 |
| 20260505065945 | 12 | 252 | 8.0 | 14.5 | 0.00 | 0.00 | 0.00 | 90 | 1014.0 |
| 20260505065444 | 12 | 163 | 8.0 | 16.1 | 0.00 | 0.00 | 0.00 | 89 | 1014.0 |
| 20260505064945 | 12 | 125 | 8.0 | 14.5 | 0.00 | 0.00 | 0.00 | 89 | 1014.0 |
| 20260505064444 | 12 | 199 | 9.7 | 14.5 | 0.00 | 0.00 | 0.00 | 89 | 1014.0 |
| 20260505063944 | 12 | 247 | 6.4 | 16.1 | 0.00 | 0.00 | 0.00 | 89 | 1015.0 |
| 20260505063445 | 12 | 174 | 9.7 | 16.1 | 0.00 | 0.00 | 0.00 | 88 | 1015.0 |
| 20260505062944 | 12 | 196 | 11.3 | 16.1 | 0.00 | 0.00 | 0.00 | 88 | 1015.0 |
| 20260505062446 | 12 | 211 | 8.0 | 22.5 | 0.00 | 0.00 | 0.00 | 88 | 1015.0 |
| 20260505061944 | 12 | 205 | 12.9 | 22.5 | 0.00 | 0.00 | 0.00 | 88 | 1015.0 |
| 20260505061444 | 12 | 202 | 9.7 | 19.3 | 0.00 | 0.00 | 0.00 | 87 | 1016.0 |
| 20260505060944 | 12 | 147 | 11.3 | 17.7 | 0.00 | 0.00 | 0.00 | 87 | 1016.0 |
| 20260505060445 | 12 | 176 | 9.7 | 16.1 | 0.00 | 0.00 | 0.00 | 87 | 1016.0 |
| 20260505055944 | 12 | 152 | 11.3 | 16.1 | 0.00 | 0.00 | 0.00 | 86 | 1016.0 |
| 20260505055445 | 13 | 267 | 11.3 | 22.5 | 0.00 | 0.00 | 0.00 | 86 | 1016.0 |
| 20260505054944 | 13 | 316 | 14.5 | 20.9 | 0.00 | 0.00 | 0.00 | 86 | 1016.0 |
| 20260505054444 | 13 | 293 | 11.3 | 17.7 | 0.00 | 0.00 | 0.00 | 85 | 1016.0 |
| 20260505053944 | 13 | 220 | 11.3 | 19.3 | 0.00 | 0.00 | 0.00 | 85 | 1016.0 |
| 20260505053444 | 13 | 251 | 11.3 | 20.9 | 0.00 | 0.00 | 0.00 | 84 | 1016.0 |
| 20260505052944 | 13 | 254 | 9.7 | 20.9 | 0.00 | 0.00 | 0.00 | 84 | 1017.0 |
| 20260505052445 | 13 | 252 | 12.9 | 20.9 | 0.00 | 0.00 | 0.00 | 84 | 1017.0 |
| 20260505051945 | 13 | 275 | 14.5 | 19.3 | 0.00 | 0.00 | 0.00 | 83 | 1017.0 |
| 20260505051444 | 13 | 247 | 11.3 | 14.5 | 0.00 | 0.00 | 0.00 | 83 | 1017.0 |
| 20260505050944 | 13 | 201 | 12.9 | 20.9 | 0.00 | 0.00 | 0.00 | 82 | 1017.0 |
| 20260505050452 | 13 | 189 | 12.9 | 20.9 | 0.00 | 0.00 | 0.00 | 82 | 1017.0 |
| 20260505041445 | 15 | 221 | 14.5 | 20.9 | 0.00 | 0.00 | 0.00 | 76 | 1018.0 |
| 20260505040945 | 15 | 114 | 14.5 | 20.9 | 0.00 | 0.00 | 0.00 | 75 | 1018.0 |
| 20260505040444 | 16 | 271 | 14.5 | 30.6 | 0.00 | 0.00 | 0.00 | 75 | 1018.0 |
| 20260505035945 | 16 | 228 | 17.7 | 30.6 | 0.00 | 0.00 | 0.00 | 74 | 1018.0 |
| 20260505035444 | 16 | 223 | 11.3 | 25.7 | 0.00 | 0.00 | 0.00 | 73 | 1018.0 |
| 20260505034944 | 16 | 244 | 9.7 | 17.7 | 0.00 | 0.00 | 0.00 | 73 | 1018.0 |
| 20260505034445 | 17 | 225 | 9.7 | 19.3 | 0.00 | 0.00 | 0.00 | 72 | 1018.0 |
| 20260505033944 | 17 | 229 | 11.3 | 20.9 | 0.00 | 0.00 | 0.00 | 71 | 1018.0 |
| 20260505033444 | 17 | 212 | 12.9 | 22.5 | 0.00 | 0.00 | 0.00 | 70 | 1018.0 |
| 20260505032946 | 17 | 258 | 12.9 | 22.5 | 0.00 | 0.00 | 0.00 | 69 | 1018.0 |
| 20260505032444 | 18 | 225 | 11.3 | 22.5 | 0.00 | 0.00 | 0.00 | 68 | 1018.0 |
| 20260505031945 | 18 | 251 | 9.7 | 20.9 | 0.00 | 0.00 | 0.00 | 67 | 1018.0 |
| 20260505031444 | 18 | 243 | 11.3 | 20.9 | 0.00 | 0.00 | 0.00 | 66 | 1018.0 |
| 20260505030944 | 18 | 248 | 12.9 | 20.9 | 0.00 | 0.00 | 0.00 | 65 | 1018.0 |
| 20260505030444 | 19 | 189 | 9.7 | 17.7 | 0.00 | 0.00 | 0.00 | 65 | 1018.0 |
| 20260505025945 | 19 | 259 | 11.3 | 20.9 | 0.00 | 0.00 | 0.00 | 64 | 1018.0 |
| 20260505025446 | 19 | 239 | 12.9 | 20.9 | 0.00 | 0.00 | 0.00 | 63 | 1018.0 |
| 20260505024947 | 20 | 210 | 9.7 | 17.7 | 0.00 | 0.00 | 0.00 | 62 | 1017.0 |
| 20260505024444 | 20 | 248 | 11.3 | 19.3 | 0.00 | 0.00 | 0.00 | 61 | 1017.0 |
| 20260505023944 | 20 | 280 | 12.9 | 19.3 | 0.00 | 0.00 | 0.00 | 61 | 1017.0 |
| 20260505023444 | 21 | 249 | 8.0 | 17.7 | 0.00 | 0.00 | 0.00 | 60 | 1017.0 |
| 20260505022945 | 21 | 214 | 9.7 | 17.7 | 0.00 | 0.00 | 0.00 | 59 | 1017.0 |
| 20260505022446 | 21 | 195 | 12.9 | 20.9 | 0.00 | 0.00 | 0.00 | 58 | 1017.0 |
| 20260505021944 | 22 | 233 | 9.7 | 12.9 | 0.00 | 0.00 | 0.00 | 56 | 1016.0 |
| 20260505021444 | 22 | 196 | 8.0 | 16.1 | 0.00 | 0.00 | 0.00 | 55 | 1016.0 |
| 20260505020944 | 22 | 176 | 8.0 | 14.5 | 0.00 | 0.00 | 0.00 | 55 | 1016.0 |
| 20260505020444 | 22 | 249 | 9.7 | 17.7 | 0.00 | 0.00 | 0.00 | 54 | 1016.0 |
| 20260505015944 | 22 | 165 | 11.3 | 16.1 | 0.00 | 0.00 | 0.00 | 53 | 1017.0 |
| 20260505015444 | 22 | 194 | 11.3 | 17.7 | 0.00 | 0.00 | 0.00 | 52 | 1017.0 |
| 20260505014945 | 23 | 185 | 9.7 | 17.7 | 0.00 | 0.00 | 0.00 | 52 | 1017.0 |
| 20260505014444 | 23 | 191 | 11.3 | 17.7 | 0.00 | 0.00 | 0.00 | 51 | 1016.0 |
| 20260505013945 | 23 | 254 | 11.3 | 17.7 | 0.00 | 0.00 | 0.00 | 50 | 1016.0 |
| 20260505013445 | 23 | 202 | 12.9 | 17.7 | 0.00 | 0.00 | 0.00 | 49 | 1016.0 |
| 20260505012945 | 23 | 196 | 11.3 | 17.7 | 0.00 | 0.00 | 0.00 | 48 | 1016.0 |
| 20260505012444 | 24 | 211 | 8.0 | 17.7 | 0.00 | 0.00 | 0.00 | 48 | 1016.0 |
| 20260505011946 | 24 | 205 | 8.0 | 12.9 | 0.00 | 0.00 | 0.00 | 48 | 1015.0 |
| 20260505011444 | 24 | 231 | 9.7 | 14.5 | 0.00 | 0.00 | 0.00 | 47 | 1015.0 |
| 20260505010944 | 24 | 220 | 11.3 | 14.5 | 0.00 | 0.00 | 0.00 | 46 | 1015.0 |
| 20260505010444 | 24 | 182 | 12.9 | 20.9 | 0.00 | 0.00 | 0.00 | 46 | 1015.0 |
| 20260505005945 | 25 | 259 | 11.3 | 17.7 | 0.00 | 0.00 | 0.00 | 46 | 1015.0 |
| 20260505005444 | 25 | 227 | 11.3 | 19.3 | 0.00 | 0.00 | 0.00 | 46 | 1014.0 |
| 20260505004944 | 25 | 221 | 11.3 | 16.1 | 0.00 | 0.00 | 0.00 | 45 | 1014.0 |
| 20260505004444 | 25 | 204 | 9.7 | 17.7 | 0.00 | 0.00 | 0.00 | 46 | 1014.0 |
| 20260505003944 | 25 | 212 | 12.9 | 17.7 | 0.00 | 0.00 | 0.00 | 45 | 1013.0 |
| 20260505003444 | 25 | 253 | 8.0 | 14.5 | 0.00 | 0.00 | 0.00 | 44 | 1013.0 |
| 20260505002945 | 26 | 239 | 11.3 | 17.7 | 0.00 | 0.00 | 0.00 | 44 | 1013.0 |
| 20260505002445 | 26 | 185 | 8.0 | 14.5 | 0.00 | 0.00 | 0.00 | 43 | 1012.0 |
| 20260505001944 | 26 | 258 | 11.3 | 12.9 | 0.00 | 0.00 | 0.00 | 43 | 1012.0 |
| 20260505001446 | 26 | 214 | 9.7 | 14.5 | 0.00 | 0.00 | 0.00 | 42 | 1011.0 |
| 20260505000944 | 26 | 256 | 9.7 | 14.5 | 0.00 | 0.00 | 0.00 | 40 | 1010.0 |
| 20260505000447 | 27 | 211 | 6.4 | 12.9 | 0.00 | 0.00 | 0.00 | 42 | 1010.0 |
| 20260504235945 | 26 | 246 | 6.4 | 16.1 | 0.00 | 0.00 | 0.00 | 43 | 1010.0 |
| 20260504235445 | 26 | 154 | 6.4 | 14.5 | 0.00 | 0.00 | 0.00 | 43 | 1010.0 |
| 20260504234944 | 27 | 191 | 8.0 | 14.5 | 0.00 | 0.00 | 0.00 | 42 | 1010.0 |
| 20260504234444 | 27 | 251 | 8.0 | 12.9 | 0.00 | 0.00 | 0.00 | 41 | 1010.0 |
| 20260504233945 | 27 | 228 | 8.0 | 12.9 | 0.00 | 0.00 | 0.00 | 41 | 1010.0 |
| 20260504233445 | 27 | 246 | 6.4 | 11.3 | 0.00 | 0.00 | 0.00 | 43 | 1010.0 |
| 20260504232944 | 27 | 220 | 9.7 | 14.5 | 0.00 | 0.00 | 0.00 | 43 | 1010.0 |
| 20260504232444 | 27 | 283 | 8.0 | 19.3 | 0.00 | 0.00 | 0.00 | 42 | 1010.0 |
| 20260504231945 | 27 | 208 | 4.8 | 16.1 | 0.00 | 0.00 | 0.00 | 41 | 1010.0 |
| 20260504231444 | 27 | 241 | 9.7 | 16.1 | 0.00 | 0.00 | 0.00 | 41 | 1010.0 |
| 20260504230944 | 26 | 209 | 9.7 | 14.5 | 0.00 | 0.00 | 0.00 | 41 | 1009.0 |
| 20260504230445 | 27 | 202 | 11.3 | 16.1 | 0.00 | 0.00 | 0.00 | 42 | 1009.0 |
| 20260504225944 | 27 | 209 | 9.7 | 16.1 | 0.00 | 0.00 | 0.00 | 41 | 1009.0 |
| 20260504225445 | 27 | 170 | 8.0 | 14.5 | 0.00 | 0.00 | 0.00 | 40 | 1009.0 |
| 20260504224945 | 26 | 217 | 8.0 | 19.3 | 0.00 | 0.00 | 0.00 | 42 | 1009.0 |
| 20260504224445 | 27 | 193 | 8.0 | 19.3 | 0.00 | 0.00 | 0.00 | 41 | 1009.0 |
| 20260504223944 | 27 | 197 | 8.0 | 17.7 | 0.00 | 0.00 | 0.00 | 42 | 1009.0 |
| 20260504223445 | 27 | 162 | 6.4 | 12.9 | 0.00 | 0.00 | 0.00 | 41 | 1008.0 |
| 20260504222944 | 27 | 350 | 9.7 | 14.5 | 0.00 | 0.00 | 0.00 | 41 | 1008.0 |
| 20260504222445 | 27 | 196 | 4.8 | 14.5 | 0.00 | 0.00 | 0.00 | 41 | 1008.0 |
| 20260504221944 | 27 | 138 | 6.4 | 12.9 | 0.00 | 0.00 | 0.00 | 42 | 1008.0 |
| 20260504221445 | 27 | 255 | 11.3 | 14.5 | 0.00 | 0.00 | 0.00 | 40 | 1008.0 |
| 20260504220944 | 27 | 295 | 8.0 | 14.5 | 0.00 | 0.00 | 0.00 | 41 | 1008.0 |
| 20260504220445 | 26 | 305 | 4.8 | 16.1 | 0.00 | 0.00 | 0.00 | 43 | 1008.0 |
| 20260504215946 | 26 | 193 | 9.7 | 16.1 | 0.00 | 0.00 | 0.00 | 43 | 1008.0 |
| 20260504215445 | 26 | 228 | 9.7 | 16.1 | 0.00 | 0.00 | 0.00 | 44 | 1008.0 |
| 20260504214944 | 26 | 268 | 11.3 | 17.7 | 0.00 | 0.00 | 0.00 | 43 | 1008.0 |
| 20260504214448 | 27 | 171 | 11.3 | 17.7 | 0.00 | 0.00 | 0.00 | 43 | 1008.0 |
| 20260504213945 | 27 | 221 | 4.8 | 12.9 | 0.00 | 0.00 | 0.00 | 43 | 1007.0 |
| 20260504213445 | 26 | 303 | 6.4 | 11.3 | 0.00 | 0.00 | 0.00 | 44 | 1007.0 |
| 20260504212944 | 26 | 257 | 6.4 | 12.9 | 0.00 | 0.00 | 0.00 | 44 | 1007.0 |
| 20260504212444 | 25 | 345 | 11.3 | 17.7 | 0.00 | 0.00 | 0.00 | 44 | 1007.0 |
| 20260504211945 | 25 | 255 | 9.7 | 17.7 | 0.00 | 0.00 | 0.00 | 45 | 1007.0 |
| 20260504211444 | 25 | 155 | 9.7 | 14.5 | 0.00 | 0.00 | 0.00 | 43 | 1007.0 |
| 20260504210945 | 26 | 264 | 4.8 | 14.5 | 0.00 | 0.00 | 0.00 | 42 | 1007.0 |
| 20260504210444 | 26 | 255 | 8.0 | 14.5 | 0.00 | 0.00 | 0.00 | 44 | 1007.0 |
| 20260504205944 | 26 | 180 | 6.4 | 12.9 | 0.00 | 0.00 | 0.00 | 44 | 1007.0 |
| 20260504205448 | 26 | 165 | 6.4 | 12.9 | 0.00 | 0.00 | 0.00 | 43 | 1007.0 |
| 20260504204944 | 26 | 240 | 6.4 | 11.3 | 0.00 | 0.00 | 0.00 | 47 | 1007.0 |
| 20260504204444 | 25 | 141 | 9.7 | 14.5 | 0.00 | 0.00 | 0.00 | 44 | 1007.0 |
| 20260504203945 | 25 | 242 | 11.3 | 14.5 | 0.00 | 0.00 | 0.00 | 46 | 1007.0 |
| 20260504203447 | 26 | 181 | 6.4 | 9.7 | 0.00 | 0.00 | 0.00 | 46 | 1007.0 |
| 20260504202945 | 25 | 198 | 4.8 | 14.5 | 0.00 | 0.00 | 0.00 | 47 | 1007.0 |
| 20260504202444 | 25 | 297 | 9.7 | 14.5 | 0.00 | 0.00 | 0.00 | 48 | 1007.0 |
| 20260504201946 | 25 | 232 | 6.4 | 16.1 | 0.00 | 0.00 | 0.00 | 49 | 1007.0 |
| 20260504201446 | 24 | 263 | 11.3 | 16.1 | 0.00 | 0.00 | 0.00 | 49 | 1007.0 |
| 20260504200944 | 24 | 303 | 8.0 | 16.1 | 0.00 | 0.00 | 0.00 | 50 | 1007.0 |
| 20260504200446 | 24 | 269 | 11.3 | 16.1 | 0.00 | 0.00 | 0.00 | 51 | 1007.0 |
| 20260504195945 | 24 | 198 | 12.9 | 16.1 | 0.00 | 0.00 | 0.00 | 49 | 1006.0 |
| 20260504195449 | 25 | 143 | 8.0 | 14.5 | 0.00 | 0.00 | 0.00 | 49 | 1006.0 |
| 20260504194945 | 25 | 231 | 6.4 | 14.5 | 0.00 | 0.00 | 0.00 | 50 | 1006.0 |
| 20260504194446 | 24 | 198 | 9.7 | 16.1 | 0.00 | 0.00 | 0.00 | 52 | 1006.0 |
| 20260504193945 | 25 | 224 | 8.0 | 12.9 | 0.00 | 0.00 | 0.00 | 50 | 1006.0 |
| 20260504193444 | 24 | 180 | 8.0 | 14.5 | 0.00 | 0.00 | 0.00 | 51 | 1006.0 |
| 20260504192945 | 24 | 216 | 8.0 | 14.5 | 0.00 | 0.00 | 0.00 | 50 | 1006.0 |
| 20260504192444 | 24 | 222 | 11.3 | 14.5 | 0.00 | 0.00 | 0.00 | 50 | 1006.0 |
| 20260504191947 | 24 | 216 | 6.4 | 12.9 | 0.00 | 0.00 | 0.00 | 52 | 1006.0 |
| 20260504191444 | 23 | 194 | 9.7 | 14.5 | 0.00 | 0.00 | 0.00 | 52 | 1006.0 |
| 20260504190945 | 23 | 225 | 8.0 | 16.1 | 0.00 | 0.00 | 0.00 | 53 | 1006.0 |
| 20260504190444 | 23 | 262 | 11.3 | 14.5 | 0.00 | 0.00 | 0.00 | 53 | 1006.0 |
| 20260504185945 | 23 | 259 | 8.0 | 14.5 | 0.00 | 0.00 | 0.00 | 52 | 1006.0 |
| 20260504185445 | 23 | 165 | 11.3 | 14.5 | 0.00 | 0.00 | 0.00 | 52 | 1006.0 |
| 20260504184944 | 23 | 225 | 11.3 | 16.1 | 0.00 | 0.00 | 0.00 | 50 | 1005.0 |
| 20260504184445 | 24 | 227 | 8.0 | 12.9 | 0.00 | 0.00 | 0.00 | 50 | 1005.0 |
| 20260504183946 | 23 | 252 | 9.7 | 12.9 | 0.00 | 0.00 | 0.00 | 50 | 1005.0 |
| 20260504183445 | 23 | 200 | 9.7 | 16.1 | 0.00 | 0.00 | 0.00 | 50 | 1005.0 |
| 20260504182945 | 24 | 151 | 6.4 | 12.9 | 0.00 | 0.00 | 0.00 | 47 | 1005.0 |
| 20260504182445 | 24 | 228 | 9.7 | 12.9 | 0.00 | 0.00 | 0.00 | 48 | 1005.0 |
| 20260504181947 | 23 | 124 | 6.4 | 9.7 | 0.00 | 0.00 | 0.00 | 48 | 1005.0 |
| 20260504181444 | 23 | 119 | 6.4 | 9.7 | 0.00 | 0.00 | 0.00 | 48 | 1005.0 |
| 20260504180947 | 23 | 114 | 6.4 | 11.3 | 0.00 | 0.00 | 0.00 | 49 | 1005.0 |
| 20260504180445 | 23 | 136 | 6.4 | 11.3 | 0.00 | 0.00 | 0.00 | 49 | 1005.0 |
| 20260504175945 | 23 | 157 | 6.4 | 9.7 | 0.00 | 0.00 | 0.00 | 49 | 1005.0 |
| 20260504175444 | 23 | 135 | 4.8 | 8.0 | 0.00 | 0.00 | 0.00 | 50 | 1005.0 |
| 20260504174945 | 22 | 123 | 6.4 | 8.0 | 0.00 | 0.00 | 0.00 | 50 | 1005.0 |
| 20260504174445 | 22 | 140 | 6.4 | 8.0 | 0.00 | 0.00 | 0.00 | 51 | 1005.0 |
| 20260504173944 | 22 | 144 | 6.4 | 9.7 | 0.00 | 0.00 | 0.00 | 51 | 1005.0 |
| 20260504173445 | 22 | 124 | 6.4 | 9.7 | 0.00 | 0.00 | 0.00 | 51 | 1005.0 |
| 20260504172945 | 23 | 111 | 6.4 | 8.0 | 0.00 | 0.00 | 0.00 | 50 | 1006.0 |
| 20260504172445 | 23 | 109 | 4.8 | 8.0 | 0.00 | 0.00 | 0.00 | 49 | 1006.0 |
| 20260504171945 | 23 | 126 | 4.8 | 11.3 | 0.00 | 0.00 | 0.00 | 50 | 1006.0 |
| 20260504171445 | 23 | 193 | 4.8 | 6.4 | 0.00 | 0.00 | 0.00 | 50 | 1006.0 |
| 20260504170946 | 22 | 142 | 4.8 | 8.0 | 0.00 | 0.00 | 0.00 | 52 | 1006.0 |
| 20260504170445 | 22 | 114 | 6.4 | 8.0 | 0.00 | 0.00 | 0.00 | 52 | 1006.0 |
| 20260504150945 | 16 | 113 | 3.2 | 4.8 | 0.00 | 0.00 | 0.00 | 62 | 1008.0 |
| 20260504150446 | 16 | 130 | 3.2 | 4.8 | 0.00 | 0.00 | 0.00 | 64 | 1008.0 |
| 20260504140945 | 12 | 107 | 3.2 | 3.2 | 0.00 | 0.00 | 0.00 | 73 | 1007.0 |
| 20260504140444 | 12 | 88 | 0.0 | 0.0 | 0.00 | 0.00 | 0.00 | 73 | 1006.0 |
| 20260504130444 | 12 | 359 | 0.0 | 0.0 | 0.00 | 0.00 | 0.00 | 69 | 1004.0 |
| 20260504110445 | 12 | 289 | 1.6 | 1.6 | 0.00 | 0.00 | 0.00 | 64 | 1009.0 |